Weather in Novaya Tolkovka

Russia / Republic of Mordovia     54°14′41″N   44°02′07″E
temp.,
°C
wind,
m/s
gust,
m/s
humid.,
%
clouds,
%
prec.,
mm/h
press.,
hPa
HPBL,
m
10 may, mon
mon1000:00+8wnw3698100 0.9 1014329
03:00+8n4998100 3.3 1015488
06:00+7n5997100 1.5 1017459
09:00+7n5997100 3.9 1019419
12:00+7n71196100 0.1 1020356
15:00+12nne61185100 0.1 1021603
18:00+12nne61487100 0.0 1021494
21:00+11nne71593100 0.1 1022360
11 may, tue
tue1100:00+10ne7169298 0.1 1022412
03:00+9ne6159693 0.1 1022347
06:00+10ne6139285 0.0 1023336
09:00+16ene61274100 0.0 1023449
12:00+20ene71164100 0.3 10231259
15:00+18se5873100 1.8 1024991
18:00+15ssw258827 0.2 1026282
21:00+12nw229333 0.2 102712
12 may, wed
wed1200:00+11nnw359598 0.0 1027107
03:00+11nnw1197100 0.0 102614
06:00+13e31294100 0.4 1025361
09:00+17ese51280100 0.5 1025992
12:00+15e61484100 0.4 1024665
15:00+19ese81467100 0.4 10241359
18:00+17se6147196 0.0 1024881
21:00+15ese31178100 0.0 1024328
13 may, thu
thu1300:00+14ese398342 0.0 1024249
03:00+13e4108196 0.0 1024217
06:00+14ese5137150 0.0 1023345
09:00+16ese5136862 0.1 1022409
12:00+18ese61466100 0.0 1022747
15:00+17ese51174100 0.1 1022512
18:00+17ese4977100 0.0 1022366
21:00+15ese3119073 0.0 1022194
14 may, fri
fri1400:00+16se41382100 0.3 1022316
03:00+14se3128350 0.3 1022251
06:00+14se4117720 0.0 1022287
09:00+20sse59595 0.0 1021470
12:00+23sse694947 0.0 1021943
15:00+24sse595360 0.0 10201128
18:00+22sse410648 0.0 1019474
21:00+17se310785 0.0 1019177